When you browse on this site, cookies collect data to enhance your experience and personalize the content and advertising you see.
Visit our Privacy Policy to learn more. By continuing to use the site, you agree to this use of cookies and data.
  • In Austria
  • List of Countries
  • For 7 days
  • Water Temperature
  • Weather Map
  • News
  • Weather Widgets
  • user-avatar
    Login

    Hourly Weather Plovdiv

    Today, 3 June, Wednesday

    Time Temperature Precipitation Wind Pressure Humidity
    00:00 +10°C° 0 mm 2 mps 733 mmHg 86%
    01:00 +10°C° 0 mm 2 mps 733 mmHg 86%
    02:00 +9°C° 0 mm 2 mps 733 mmHg 85%
    03:00 +9°C° 0 mm 2 mps 733 mmHg 86%
    04:00 +9°C° 0 mm 2 mps 733 mmHg 86%
    05:00 +9°C° 0 mm 2 mps 733 mmHg 86%
    06:00 +12°C° 0 mm 2 mps 733 mmHg 80%
    07:00 +14°C° 0 mm 2 mps 733 mmHg 73%
    08:00 +16°C° 0 mm 2 mps 733 mmHg 66%
    09:00 +17°C° 0.1 mm 2 mps 733 mmHg 62%
    10:00 +18°C° 0.1 mm 2 mps 733 mmHg 58%
    11:00 +19°C° 0.1 mm 2 mps 733 mmHg 54%
    12:00 +20°C° 0.4 mm 2 mps 733 mmHg 55%
    13:00 +22°C° 0.4 mm 1 mps 733 mmHg 56%
    14:00 +22°C° 0.4 mm 1 mps 732 mmHg 57%
    15:00 +22°C° 0.4 mm 1 mps 732 mmHg 56%
    16:00 +22°C° 0.4 mm 1 mps 732 mmHg 55%
    17:00 +22°C° 0.4 mm 1 mps 732 mmHg 54%
    18:00 +20°C° 0.1 mm 1 mps 732 mmHg 62%
    19:00 +17°C° 0.1 mm 2 mps 732 mmHg 69%
    20:00 +15°C° 0.1 mm 2 mps 732 mmHg 77%
    21:00 +14°C° 0.1 mm 2 mps 732 mmHg 78%
    22:00 +14°C° 0.1 mm 2 mps 732 mmHg 80%
    23:00 +13°C° 0.1 mm 2 mps 733 mmHg 81%

    Tomorrow, 4 June, Thursday

    Time Temperature Precipitation Wind Pressure Humidity
    00:00 +13°C° 0 mm 2 mps 733 mmHg 82%
    01:00 +13°C° 0 mm 2 mps 732 mmHg 82%
    02:00 +12°C° 0 mm 2 mps 732 mmHg 82%
    03:00 +12°C° 0 mm 2 mps 732 mmHg 81%
    04:00 +12°C° 0 mm 2 mps 732 mmHg 81%
    05:00 +12°C° 0 mm 2 mps 732 mmHg 80%
    06:00 +15°C° 0 mm 2 mps 733 mmHg 73%
    07:00 +18°C° 0 mm 1 mps 733 mmHg 67%
    08:00 +20°C° 0 mm 1 mps 733 mmHg 60%
    09:00 +22°C° 0 mm 1 mps 733 mmHg 54%
    10:00 +24°C° 0 mm 1 mps 734 mmHg 48%
    11:00 +26°C° 0 mm 2 mps 734 mmHg 42%
    12:00 +26°C° 0.1 mm 2 mps 734 mmHg 44%
    13:00 +26°C° 0.1 mm 2 mps 734 mmHg 46%
    14:00 +26°C° 0.1 mm 2 mps 734 mmHg 48%
    15:00 +26°C° 0.2 mm 2 mps 734 mmHg 52%
    16:00 +26°C° 0.2 mm 2 mps 734 mmHg 55%
    17:00 +25°C° 0.2 mm 3 mps 734 mmHg 58%
    18:00 +24°C° 0 mm 2 mps 734 mmHg 64%
    19:00 +21°C° 0 mm 2 mps 733 mmHg 69%
    20:00 +19°C° 0 mm 2 mps 733 mmHg 74%
    21:00 +18°C° 0 mm 2 mps 734 mmHg 76%
    22:00 +18°C° 0 mm 2 mps 734 mmHg 78%
    23:00 +17°C° 0 mm 2 mps 734 mmHg 80%

    Day after tomorrow, 5 June, Friday

    Time Temperature Precipitation Wind Pressure Humidity
    00:00 +17°C° 0 mm 2 mps 734 mmHg 80%
    01:00 +16°C° 0 mm 2 mps 734 mmHg 81%
    02:00 +16°C° 0 mm 2 mps 734 mmHg 82%
    03:00 +16°C° 0 mm 2 mps 734 mmHg 82%
    04:00 +15°C° 0 mm 2 mps 734 mmHg 83%
    05:00 +15°C° 0 mm 2 mps 734 mmHg 83%
    06:00 +17°C° 0 mm 2 mps 734 mmHg 77%
    07:00 +19°C° 0 mm 2 mps 734 mmHg 70%
    08:00 +21°C° 0 mm 2 mps 734 mmHg 64%
    09:00 +24°C° 0 mm 2 mps 734 mmHg 58%
    10:00 +26°C° 0 mm 2 mps 734 mmHg 51%
    11:00 +27°C° 0 mm 3 mps 734 mmHg 45%
    12:00 +28°C° 0 mm 3 mps 734 mmHg 43%
    13:00 +29°C° 0 mm 3 mps 733 mmHg 42%
    14:00 +30°C° 0 mm 3 mps 733 mmHg 40%
    15:00 +29°C° 0 mm 3 mps 733 mmHg 41%
    16:00 +29°C° 0 mm 4 mps 732 mmHg 42%
    17:00 +28°C° 0 mm 4 mps 732 mmHg 43%
    18:00 +26°C° 0 mm 3 mps 732 mmHg 50%
    19:00 +22°C° 0 mm 3 mps 732 mmHg 57%
    20:00 +20°C° 0 mm 3 mps 732 mmHg 64%
    21:00 +19°C° 0 mm 3 mps 733 mmHg 66%
    22:00 +18°C° 0 mm 2 mps 733 mmHg 68%
    23:00 +18°C° 0 mm 2 mps 733 mmHg 70%

    6 June, Saturday

    Time Temperature Precipitation Wind Pressure Humidity
    00:00 +18°C° 0 mm 2 mps 733 mmHg 70%
    01:00 +17°C° 0 mm 2 mps 733 mmHg 69%
    02:00 +18°C° 0 mm 1 mps 733 mmHg 69%
    03:00 +18°C° 0 mm 1 mps 733 mmHg 73%
    04:00 +16°C° 0 mm 1 mps 733 mmHg 77%
    05:00 +16°C° 0 mm 1 mps 734 mmHg 81%
    06:00 +18°C° 0.1 mm 1 mps 734 mmHg 79%
    07:00 +19°C° 0.1 mm 1 mps 734 mmHg 76%
    08:00 +21°C° 0.1 mm 1 mps 734 mmHg 74%
    09:00 +20°C° 0.5 mm 1 mps 735 mmHg 76%
    10:00 +20°C° 0.5 mm 1 mps 735 mmHg 78%
    11:00 +20°C° 0.5 mm 1 mps 735 mmHg 79%
    12:00 +21°C° 0.3 mm 1 mps 735 mmHg 74%
    13:00 +22°C° 0.3 mm 1 mps 735 mmHg 69%
    14:00 +23°C° 0.3 mm 2 mps 735 mmHg 64%
    15:00 +23°C° 0.5 mm 2 mps 734 mmHg 65%
    16:00 +23°C° 0.5 mm 2 mps 734 mmHg 67%
    17:00 +21°C° 0.5 mm 2 mps 734 mmHg 68%
    18:00 +20°C° 0.2 mm 2 mps 734 mmHg 74%
    19:00 +19°C° 0.2 mm 1 mps 734 mmHg 80%
    20:00 +18°C° 0.2 mm 1 mps 734 mmHg 87%
    21:00 +16°C° 0 mm 1 mps 734 mmHg 86%
    22:00 +16°C° 0 mm 1 mps 734 mmHg 85%
    23:00 +16°C° 0 mm 2 mps 735 mmHg 84%

    7 June, Sunday

    Time Temperature Precipitation Wind Pressure Humidity
    00:00 +15°C° 0 mm 1 mps 735 mmHg 83%
    01:00 +15°C° 0 mm 1 mps 735 mmHg 83%
    02:00 +15°C° 0 mm 1 mps 734 mmHg 82%
    03:00 +15°C° 0 mm 1 mps 734 mmHg 82%
    04:00 +15°C° 0 mm 1 mps 734 mmHg 82%
    05:00 +14°C° 0 mm 1 mps 734 mmHg 82%
    06:00 +18°C° 0 mm 1 mps 735 mmHg 75%
    07:00 +20°C° 0 mm 1 mps 735 mmHg 68%
    08:00 +23°C° 0 mm 1 mps 735 mmHg 61%
    09:00 +24°C° 0 mm 1 mps 735 mmHg 57%
    10:00 +26°C° 0 mm 1 mps 736 mmHg 53%
    11:00 +27°C° 0 mm 1 mps 736 mmHg 49%
    12:00 +28°C° 0.1 mm 2 mps 735 mmHg 49%
    13:00 +28°C° 0.1 mm 2 mps 735 mmHg 49%
    14:00 +29°C° 0.1 mm 2 mps 735 mmHg 48%
    15:00 +28°C° 0.4 mm 2 mps 734 mmHg 52%
    16:00 +28°C° 0.4 mm 2 mps 734 mmHg 56%
    17:00 +28°C° 0.4 mm 2 mps 734 mmHg 60%
    18:00 +26°C° 0.5 mm 2 mps 734 mmHg 66%
    19:00 +24°C° 0.5 mm 1 mps 734 mmHg 73%
    20:00 +22°C° 0.5 mm 1 mps 734 mmHg 79%
    21:00 +21°C° 0.2 mm 1 mps 734 mmHg 81%
    22:00 +20°C° 0.2 mm 1 mps 735 mmHg 83%
    23:00 +20°C° 0.2 mm 1 mps 735 mmHg 85%

    8 June, Monday

    Time Temperature Precipitation Wind Pressure Humidity
    00:00 +19°C° 0 mm 1 mps 735 mmHg 86%
    01:00 +19°C° 0 mm 1 mps 735 mmHg 86%
    02:00 +19°C° 0 mm 1 mps 734 mmHg 87%
    03:00 +19°C° 0 mm 1 mps 734 mmHg 87%
    04:00 +18°C° 0 mm 1 mps 734 mmHg 86%
    05:00 +18°C° 0 mm 1 mps 734 mmHg 86%
    06:00 +20°C° 0 mm 1 mps 734 mmHg 81%
    07:00 +22°C° 0 mm 1 mps 735 mmHg 77%
    08:00 +24°C° 0 mm 1 mps 735 mmHg 72%
    09:00 +25°C° 0.4 mm 1 mps 735 mmHg 70%
    10:00 +25°C° 0.4 mm 1 mps 735 mmHg 68%
    11:00 +26°C° 0.4 mm 1 mps 735 mmHg 66%
    12:00 +27°C° 0.9 mm 1 mps 734 mmHg 65%
    13:00 +27°C° 0.9 mm 1 mps 734 mmHg 65%
    14:00 +27°C° 0.9 mm 1 mps 734 mmHg 65%
    15:00 +26°C° 1 mm 1 mps 734 mmHg 69%
    16:00 +25°C° 1 mm 2 mps 734 mmHg 73%
    17:00 +24°C° 1 mm 2 mps 733 mmHg 76%
    18:00 +21°C° 0.8 mm 2 mps 733 mmHg 81%
    19:00 +21°C° 0.8 mm 1 mps 733 mmHg 85%
    20:00 +19°C° 0.8 mm 1 mps 733 mmHg 89%
    21:00 +19°C° 0 mm 1 mps 734 mmHg 88%
    22:00 +18°C° 0 mm 2 mps 734 mmHg 87%
    23:00 +17°C° 0 mm 2 mps 734 mmHg 86%
    Show more